DLH2KE EDDF-EDDB

Flight info

Callsign DLH2KE
Flight time 0h 43m
Altitude 31000
Route TOBAK2D/07C TOBAK N858 SWALM T201 TAMEB T278 KLF KLF1L
Aircraft A321/M-SDE3FGHIRWY/LB1

Departure

Time 2026-05-07 19:52
Airport Frankfurt Main Airport (EDDF)

Arrival

Time 2026-05-07 20:35
Airport Berlin Brandenburg Airport (EDDB)
Time Latitude Longitude Altitude Speed Heading
2026-05-07 19:06 50.04851 8.56952 361 ft 0 kts 295°
2026-05-07 19:40 50.04847 8.56962 356 ft 4 kts 294°
2026-05-07 19:40 50.04837 8.56998 363 ft 2 kts 296°
2026-05-07 19:41 50.04830 8.57030 363 ft 4 kts 266°
2026-05-07 19:41 50.04838 8.57064 362 ft 4 kts 214°
2026-05-07 19:41 50.04843 8.57069 362 ft 4 kts 204°
2026-05-07 19:41 50.04818 8.57052 361 ft 4 kts 205°
2026-05-07 19:42 50.04793 8.57034 359 ft 4 kts 205°
2026-05-07 19:42 50.04769 8.57017 362 ft 4 kts 205°
2026-05-07 19:42 50.04744 8.56999 357 ft 4 kts 205°
2026-05-07 19:42 50.04720 8.56982 360 ft 4 kts 205°
2026-05-07 19:43 50.04695 8.56964 361 ft 4 kts 205°
2026-05-07 19:43 50.04671 8.56947 358 ft 4 kts 205°
2026-05-07 19:43 50.04658 8.56938 361 ft 1 kts 205°
2026-05-07 19:45 50.04656 8.56936 358 ft 2 kts 205°
2026-05-07 19:45 50.04628 8.56920 360 ft 5 kts 195°
2026-05-07 19:45 50.04600 8.56909 356 ft 2 kts 194°
2026-05-07 19:46 50.04590 8.56905 357 ft 2 kts 194°
2026-05-07 19:46 50.04566 8.56896 362 ft 3 kts 193°
2026-05-07 19:46 50.04527 8.56882 359 ft 9 kts 193°
2026-05-07 19:46 50.04462 8.56840 361 ft 11 kts 221°
2026-05-07 19:47 50.04425 8.56719 360 ft 14 kts 249°
2026-05-07 19:47 50.04380 8.56581 362 ft 14 kts 214°
2026-05-07 19:47 50.04280 8.56613 363 ft 16 kts 159°
2026-05-07 19:47 50.04196 8.56569 360 ft 16 kts 252°
2026-05-07 19:48 50.04154 8.56392 356 ft 19 kts 249°
2026-05-07 19:48 50.04104 8.56184 360 ft 22 kts 250°
2026-05-07 19:48 50.04049 8.55952 358 ft 24 kts 249°
2026-05-07 19:48 50.03996 8.55732 353 ft 21 kts 250°
2026-05-07 19:49 50.03937 8.55483 359 ft 30 kts 250°
2026-05-07 19:49 50.03862 8.55176 355 ft 30 kts 249°
2026-05-07 19:49 50.03796 8.54899 352 ft 24 kts 250°
2026-05-07 19:49 50.03751 8.54737 348 ft 13 kts 228°
2026-05-07 19:50 50.03662 8.54724 352 ft 13 kts 163°
2026-05-07 19:50 50.03584 8.54781 352 ft 10 kts 119°
2026-05-07 19:50 50.03588 8.54825 352 ft 0 kts 70°
2026-05-07 19:51 50.03592 8.54842 349 ft 8 kts 70°
2026-05-07 19:51 50.03664 8.55146 344 ft 66 kts 69°
2026-05-07 19:51 50.03916 8.56194 356 ft 138 kts 69°
2026-05-07 19:51 50.04274 8.57727 875 ft 153 kts 70°
2026-05-07 19:52 50.04629 8.59289 1717 ft 153 kts 70°
2026-05-07 19:52 50.04988 8.60863 2534 ft 154 kts 69°
2026-05-07 19:52 50.05355 8.62475 3132 ft 164 kts 69°
2026-05-07 19:52 50.05752 8.64222 3595 ft 182 kts 69°
2026-05-07 19:53 50.06194 8.66191 3924 ft 204 kts 69°
2026-05-07 19:53 50.06686 8.68387 4224 ft 226 kts 69°
2026-05-07 19:53 50.07419 8.70589 4808 ft 236 kts 49°
2026-05-07 19:53 50.08774 8.72136 5160 ft 254 kts 22°
2026-05-07 19:54 50.10439 8.73251 5872 ft 265 kts 21°
2026-05-07 19:54 50.12158 8.74391 6731 ft 271 kts 21°
2026-05-07 19:54 50.13908 8.75556 7569 ft 276 kts 22°
2026-05-07 19:54 50.15675 8.76771 8434 ft 280 kts 26°
2026-05-07 19:55 50.17208 8.78678 9232 ft 287 kts 50°
2026-05-07 19:55 50.18221 8.81391 10062 ft 292 kts 62°
2026-05-07 19:55 50.19193 8.84238 10529 ft 308 kts 61°
2026-05-07 19:55 50.20236 8.87293 10869 ft 326 kts 61°
2026-05-07 19:56 50.21309 8.90452 11493 ft 333 kts 61°
2026-05-07 19:56 50.22399 8.93679 12184 ft 337 kts 61°
2026-05-07 19:56 50.23499 8.96947 12885 ft 342 kts 62°
2026-05-07 19:56 50.24609 9.00253 13585 ft 346 kts 62°
2026-05-07 19:57 50.25736 9.03610 14255 ft 351 kts 62°
2026-05-07 19:57 50.26876 9.07006 14914 ft 354 kts 62°
2026-05-07 19:57 50.28038 9.10407 15542 ft 358 kts 61°
2026-05-07 19:57 50.29215 9.13865 16198 ft 361 kts 62°
2026-05-07 19:58 50.30384 9.17364 16896 ft 364 kts 62°
2026-05-07 19:58 50.31551 9.20891 17553 ft 367 kts 62°
2026-05-07 19:58 50.32731 9.24465 18216 ft 371 kts 62°
2026-05-07 19:58 50.33921 9.28065 18788 ft 374 kts 62°
2026-05-07 19:59 50.35124 9.31690 19342 ft 377 kts 62°
2026-05-07 19:59 50.36339 9.35347 19899 ft 380 kts 62°
2026-05-07 19:59 50.37577 9.39077 20451 ft 383 kts 62°
2026-05-07 19:59 50.38794 9.42746 21009 ft 386 kts 62°
2026-05-07 20:00 50.40052 9.46541 21557 ft 389 kts 62°
2026-05-07 20:00 50.41284 9.50269 22097 ft 392 kts 62°
2026-05-07 20:00 50.42538 9.54077 22621 ft 395 kts 62°
2026-05-07 20:00 50.43815 9.57966 23142 ft 398 kts 62°
2026-05-07 20:01 50.45068 9.61790 23644 ft 401 kts 62°
2026-05-07 20:01 50.46363 9.65744 24087 ft 403 kts 62°
2026-05-07 20:01 50.47651 9.69668 24542 ft 406 kts 62°
2026-05-07 20:01 50.48947 9.73622 24980 ft 408 kts 62°
2026-05-07 20:02 50.50247 9.77596 25423 ft 410 kts 62°
2026-05-07 20:02 50.51548 9.81588 25862 ft 412 kts 62°
2026-05-07 20:02 50.52856 9.85617 26334 ft 414 kts 62°
2026-05-07 20:02 50.54166 9.89655 26764 ft 416 kts 62°
2026-05-07 20:03 50.55485 9.93719 27194 ft 418 kts 62°
2026-05-07 20:03 50.56809 9.97803 27627 ft 420 kts 62°
2026-05-07 20:03 50.58140 10.01913 28042 ft 423 kts 62°
2026-05-07 20:03 50.59479 10.06052 28479 ft 425 kts 62°
2026-05-07 20:04 50.60820 10.10206 28892 ft 427 kts 62°
2026-05-07 20:04 50.62166 10.14384 29082 ft 429 kts 62°
2026-05-07 20:04 50.64853 10.22758 29100 ft 428 kts 62°
2026-05-07 20:05 50.67520 10.31133 29099 ft 428 kts 62°
2026-05-07 20:05 50.70195 10.39510 29094 ft 427 kts 63°
2026-05-07 20:06 50.72859 10.47877 29096 ft 427 kts 63°
2026-05-07 20:06 50.75516 10.56261 29097 ft 427 kts 63°
2026-05-07 20:07 50.78162 10.64665 29100 ft 427 kts 63°
2026-05-07 20:07 50.80809 10.73077 29103 ft 427 kts 63°
2026-05-07 20:08 50.83548 10.81408 29115 ft 427 kts 61°
2026-05-07 20:08 50.86731 10.89312 29108 ft 426 kts 53°
2026-05-07 20:09 50.90257 10.97077 29111 ft 440 kts 53°
2026-05-07 20:10 50.95630 11.08950 29112 ft 442 kts 54°
2026-05-07 20:10 50.98595 11.15559 29109 ft 442 kts 54°
2026-05-07 20:11 51.02161 11.23510 29106 ft 442 kts 54°
2026-05-07 20:11 51.05724 11.31461 29096 ft 442 kts 53°
2026-05-07 20:12 51.09289 11.39434 29095 ft 442 kts 54°
2026-05-07 20:12 51.12836 11.47417 29094 ft 440 kts 53°
2026-05-07 20:13 51.16659 11.54892 29097 ft 429 kts 40°
2026-05-07 20:13 51.21143 11.61189 29097 ft 430 kts 40°
2026-05-07 20:14 51.25646 11.67509 29097 ft 432 kts 40°
2026-05-07 20:14 51.30150 11.73866 29095 ft 432 kts 40°
2026-05-07 20:15 51.34656 11.80232 28762 ft 432 kts 40°
2026-05-07 20:15 51.36889 11.83394 28187 ft 425 kts 40°
2026-05-07 20:15 51.39109 11.86541 27346 ft 425 kts 40°
2026-05-07 20:15 51.41304 11.89664 26822 ft 418 kts 40°
2026-05-07 20:16 51.43459 11.92736 26304 ft 412 kts 40°
2026-05-07 20:16 51.45585 11.95769 25883 ft 403 kts 40°
2026-05-07 20:16 51.47636 11.98699 25782 ft 388 kts 40°
2026-05-07 20:16 51.49611 12.01521 25680 ft 373 kts 40°
2026-05-07 20:17 51.51520 12.04254 25490 ft 362 kts 40°
2026-05-07 20:17 51.53379 12.06908 25241 ft 353 kts 40°
2026-05-07 20:17 51.55194 12.09502 24994 ft 345 kts 40°
2026-05-07 20:17 51.56979 12.12060 24537 ft 344 kts 40°
2026-05-07 20:18 51.58761 12.14616 24073 ft 343 kts 39°
2026-05-07 20:18 51.60542 12.17172 23588 ft 343 kts 39°
2026-05-07 20:18 51.62319 12.19723 23031 ft 342 kts 39°
2026-05-07 20:18 51.64087 12.22270 22496 ft 341 kts 40°
2026-05-07 20:19 51.65852 12.24820 21949 ft 340 kts 40°
2026-05-07 20:19 51.67608 12.27363 21422 ft 339 kts 40°
2026-05-07 20:19 51.69376 12.29930 20890 ft 334 kts 40°
2026-05-07 20:19 51.71043 12.32352 20246 ft 321 kts 40°
2026-05-07 20:20 51.72715 12.34777 19320 ft 319 kts 41°
2026-05-07 20:20 51.74361 12.37160 18437 ft 316 kts 41°
2026-05-07 20:20 51.75974 12.39495 17630 ft 308 kts 41°
2026-05-07 20:20 51.77529 12.41749 17046 ft 305 kts 41°
2026-05-07 20:21 51.79138 12.44088 16512 ft 306 kts 41°
2026-05-07 20:21 51.80721 12.46393 15997 ft 306 kts 41°
2026-05-07 20:21 51.82302 12.48694 15495 ft 306 kts 41°
2026-05-07 20:21 51.83885 12.50997 14998 ft 306 kts 41°
2026-05-07 20:22 51.85469 12.53304 14508 ft 306 kts 42°
2026-05-07 20:22 51.87048 12.55608 14042 ft 305 kts 42°
2026-05-07 20:22 51.88618 12.57908 13575 ft 303 kts 42°
2026-05-07 20:22 51.90175 12.60192 13085 ft 301 kts 42°
2026-05-07 20:23 51.91724 12.62462 12621 ft 300 kts 42°
2026-05-07 20:23 51.93266 12.64722 12150 ft 298 kts 42°
2026-05-07 20:23 51.94801 12.66974 11622 ft 298 kts 43°
2026-05-07 20:23 51.96337 12.69231 11138 ft 298 kts 43°
2026-05-07 20:24 51.97868 12.71485 10634 ft 297 kts 43°
2026-05-07 20:24 51.99399 12.73745 10147 ft 297 kts 43°
2026-05-07 20:24 52.00906 12.75969 9915 ft 286 kts 43°
2026-05-07 20:24 52.02339 12.78085 9859 ft 271 kts 43°
2026-05-07 20:25 52.03701 12.80097 9711 ft 260 kts 43°
2026-05-07 20:25 52.05032 12.82062 9392 ft 257 kts 43°
2026-05-07 20:25 52.06347 12.84004 9069 ft 254 kts 43°
2026-05-07 20:25 52.07646 12.85927 8753 ft 251 kts 43°
2026-05-07 20:26 52.08930 12.87832 8460 ft 248 kts 43°
2026-05-07 20:26 52.10176 12.89679 8375 ft 236 kts 43°
2026-05-07 20:26 52.11354 12.91431 8296 ft 224 kts 44°
2026-05-07 20:26 52.12477 12.93136 8223 ft 220 kts 43°
2026-05-07 20:27 52.13616 12.94822 7943 ft 222 kts 43°
2026-05-07 20:27 52.14762 12.96499 7637 ft 220 kts 43°
2026-05-07 20:27 52.15896 12.98156 7336 ft 218 kts 43°
2026-05-07 20:27 52.17022 12.99804 7040 ft 216 kts 43°
2026-05-07 20:28 52.18141 13.01444 6756 ft 222 kts 43°
2026-05-07 20:28 52.19356 13.03231 6481 ft 240 kts 43°
2026-05-07 20:28 52.20597 13.05055 6168 ft 241 kts 43°
2026-05-07 20:28 52.21867 13.06921 5831 ft 248 kts 43°
2026-05-07 20:29 52.23146 13.08805 5491 ft 248 kts 43°
2026-05-07 20:29 52.24420 13.10685 5148 ft 246 kts 43°
2026-05-07 20:29 52.25688 13.12557 4791 ft 245 kts 43°
2026-05-07 20:29 52.26934 13.14398 4565 ft 238 kts 43°
2026-05-07 20:30 52.28133 13.16168 4336 ft 227 kts 43°
2026-05-07 20:30 52.29252 13.17895 4070 ft 217 kts 50°
2026-05-07 20:30 52.29968 13.19999 3812 ft 209 kts 69°
2026-05-07 20:30 52.30482 13.22174 3577 ft 201 kts 69°
2026-05-07 20:31 52.30967 13.24231 3366 ft 186 kts 69°
2026-05-07 20:31 52.31420 13.26130 3141 ft 174 kts 68°
2026-05-07 20:31 52.31853 13.27938 2898 ft 169 kts 69°
2026-05-07 20:31 52.32279 13.29713 2672 ft 167 kts 68°
2026-05-07 20:32 52.32702 13.31477 2440 ft 166 kts 68°
2026-05-07 20:32 52.33121 13.33225 2215 ft 165 kts 68°
2026-05-07 20:32 52.33538 13.34965 1975 ft 164 kts 68°
2026-05-07 20:32 52.33952 13.36698 1763 ft 163 kts 68°
2026-05-07 20:33 52.34347 13.38351 1543 ft 147 kts 68°
2026-05-07 20:33 52.34702 13.39837 1346 ft 135 kts 68°
2026-05-07 20:33 52.35038 13.41242 1147 ft 131 kts 68°
2026-05-07 20:33 52.35370 13.42636 966 ft 132 kts 66°
2026-05-07 20:34 52.35705 13.44037 773 ft 134 kts 68°
2026-05-07 20:34 52.36045 13.45466 595 ft 135 kts 67°
2026-05-07 20:34 52.36384 13.46889 410 ft 135 kts 68°
2026-05-07 20:34 52.36731 13.48341 237 ft 138 kts 67°
2026-05-07 20:35 52.37061 13.49729 156 ft 116 kts 70°
2026-05-07 20:35 52.37244 13.50515 155 ft 44 kts 69°
2026-05-07 20:35 52.37309 13.50882 155 ft 26 kts 87°
2026-05-07 20:35 52.37292 13.51149 155 ft 19 kts 99°
2026-05-07 20:36 52.37273 13.51303 155 ft 9 kts 116°
2026-05-07 20:36 52.37213 13.51326 155 ft 11 kts 209°
2026-05-07 20:36 52.37173 13.51199 155 ft 13 kts 248°
2026-05-07 20:36 52.37141 13.51063 155 ft 15 kts 249°
2026-05-07 20:37 52.37094 13.50870 155 ft 19 kts 249°
2026-05-07 20:37 52.37049 13.50680 155 ft 17 kts 249°
2026-05-07 20:37 52.37009 13.50508 155 ft 15 kts 249°
2026-05-07 20:37 52.36968 13.50337 155 ft 17 kts 248°
2026-05-07 20:38 52.36927 13.50169 155 ft 15 kts 245°
2026-05-07 20:38 52.36846 13.50146 155 ft 12 kts 162°
2026-05-07 20:38 52.36772 13.50187 155 ft 10 kts 173°
2026-05-07 20:38 52.36693 13.50165 155 ft 15 kts 169°
2026-05-07 20:39 52.36594 13.50225 155 ft 12 kts 159°
2026-05-07 20:39 52.36529 13.50266 155 ft 9 kts 159°
2026-05-07 20:39 52.36482 13.50296 155 ft 6 kts 159°
2026-05-07 20:39 52.36460 13.50326 155 ft 3 kts 104°
2026-05-07 20:40 52.36472 13.50384 155 ft 8 kts 66°
2026-05-07 20:40 52.36491 13.50461 155 ft 7 kts 69°
2026-05-07 20:40 52.36503 13.50513 155 ft 2 kts 69°
2026-05-07 20:40 52.36503 13.50514 155 ft 0 kts 69°